CAPE
1710 1990 2111 2088 1970 2049 2022 2130 2116 2071 1939 1865 1984 1824 1781 1610 1714 1818 1772 1735 1849 1751 1797 1646 1446 1446 1233 1081 1232 1583 1670 1487 1335 1075 1198 1397 1982 2412 3054 2771 2926 3194 3039 3153 2930 2662 2393 2511 2718 2968 2722 2416 2344 2161 1849 1836 1771 1584 1476 2045 1988 1878 1783 1711 1897 1598 1445 2073 2119 2108 2237 2039 2176 2870 2567 2740 3176 3344 2615 2988 2778 3104 3376 2921 2876
1634 1955 2192 2164 2100 2138 2000 2056 2079 2074 2337 2315 2368 2102 2065 1907 1906 1921 2109 1955 1904 1736 1634 1642 1504 1379 1267 1044 893 1021 1305 1533 1249 911 957 1198 2086 2747 3152 2861 2957 2922 2777 3016 2934 2569 2358 2350 2338 2282 2169 2016 2256 2196 2036 2321 2359 2151 1276 1417 2261 2257 1860 1536 1716 1608 1589 1783 2178 2406 2363 2753 2276 2372 2426 2886 3167 2984 2831 3379 3473 2204 2874 3113 3337
1668 1761 2053 2049 2061 2137 2092 2050 1987 2023 2645 2716 2820 2598 2350 2206 2140 2105 2193 2137 1953 1679 1687 1614 1616 1559 1060 818 745 707 888 1136 947 768 814 1004 1540 2597 2599 2706 3080 2973 2994 3016 3005 2692 2254 2052 2037 1826 1837 1784 2071 2072 1760 1859 1947 1838 1918 1590 1741 1606 1652 1591 2047 1761 1671 1898 2258 1516 1999 1682 1583 1716 1839 2604 2318 2623 2680 2661 2915 2718 3164 3192 2952
1871 1707 1787 1641 1776 2072 2061 2163 2105 1966 2530 2800 2909 2900 2667 2465 2509 2521 2314 2280 1988 1741 1671 1432 1544 1736 1528 1208 866 874 959 1110 1162 1000 990 1230 1388 1630 2378 2633 2739 2240 2314 2319 2508 2539 2783 2781 2257 1624 1765 2218 2247 1839 1694 1168 1318 1710 1549 1370 1926 1528 1136 1400 1740 1632 1833 2177 2126 1966 1317 1132 614 1294 1576 2297 2041 1977 1824 1857 2030 2571 3399 3715 3279
2001 1883 1800 1588 1452 1634 1957 2168 2180 1962 2252 2761 3014 2925 2594 2605 2786 2847 2630 2375 2190 2037 2120 1670 1599 1978 2137 1667 1753 1595 1790 1950 1646 1426 1568 1828 1475 1642 1722 2198 2361 2250 1941 2370 2410 2623 3054 3238 2838 2540 2493 2603 2056 1896 1832 851 919 1577 1627 1731 1746 1434 1268 1361 1350 1014 1759 2579 1852 1644 1154 1198 1023 1490 1490 2376 1898 1836 2526 2244 2108 3092 3594 3832 3362
1934 1870 1608 1439 1420 1540 1784 2173 2052 1917 2038 2648 3183 2847 2687 2601 2859 3077 2752 2705 2461 2580 2762 2148 1919 2064 2076 1857 1817 1897 1904 1603 1484 1322 1295 1401 1375 1303 1462 1556 1814 2061 1884 1919 2226 2415 2715 3130 3203 2818 2323 2417 2472 2115 1424 1073 997 758 980 1336 1149 1598 1684 1431 1031 1069 1628 2840 2257 2298 1905 1468 1649 1700 1866 1530 2554 2924 2217 2436 2432 2621 2300 3221 3413
1829 1776 1468 1266 1481 1538 1842 2168 1947 1767 1748 2388 2938 2697 2496 2679 2840 3114 3096 2943 2609 2862 3019 2547 2157 2013 2006 1590 1490 1592 1683 2066 2040 1757 1542 1649 1655 1571 1442 1584 1499 1396 1445 1419 1418 1924 2434 3022 3321 3167 2378 2322 2484 2632 2427 1594 850 901 1130 1376 1184 1267 1646 1563 1159 1179 1799 2216 2229 2215 2675 2710 2252 2152 1863 2375 2131 2803 2062 1952 3114 2780 3099 2547 2940
1812 1726 1744 1453 1494 1621 1857 1927 2069 1782 1530 1830 2470 2435 2610 3000 2974 3054 3075 3071 3116 3239 3093 2896 2428 2104 2063 1673 1139 1452 1416 1901 2460 2577 2136 2359 2538 2170 1823 1911 2018 1926 1826 1902 2016 2018 2528 2873 3248 3195 2622 2223 2176 2513 2409 2101 1752 1481 1543 1566 1580 1715 1740 1258 1042 1309 1808 2016 2077 2437 2748 2574 2916 2666 2546 2225 2362 2101 1864 1958 2983 2988 3292 2488 3204
1647 1699 1662 1667 1618 1841 1818 2256 1963 2021 1604 1626 2139 2561 2808 2783 2648 2661 2885 2833 2969 2995 3128 3063 2539 2218 2212 1899 1557 1520 1893 1939 2595 2908 2736 2487 2587 2222 2050 1963 2231 2548 2340 2125 2426 2257 2438 2805 2995 3118 2674 2450 2355 2274 2258 2054 2297 2191 2108 1996 2073 1937 1472 1244 1569 1596 1519 1719 2263 2647 2404 2548 2652 3021 2750 2603 2527 2238 2061 2163 1984 2295 2879 2799 2593
1519 1565 1613 1860 1862 1843 1899 2048 2198 2197 1992 1857 2305 2323 2516 2693 2934 2886 2863 2822 2567 2363 2447 2964 2956 2707 2729 2258 1908 2015 2043 2332 2390 3049 3034 2908 2791 2349 2535 2458 2071 2391 2612 2328 2302 2479 2612 2765 2714 2610 2446 2090 2087 2136 2194 2414 2627 2697 2240 1924 1986 1711 1786 1601 1524 1492 1749 1928 1691 2286 2877 3112 2704 2696 2941 2416 2498 2718 2391 2044 1708 1572 1761 2294 3614
1532 1516 1646 1985 1987 1803 1758 2010 2366 2621 2310 2164 2234 2081 2290 2770 2770 2592 2724 2765 2738 2720 2697 2715 3004 3049 2851 2569 2470 2643 2890 2880 2873 2890 3318 3238 2856 2492 2526 2822 2425 2071 1980 2288 2518 2366 2405 2471 2344 2057 1887 1881 2298 2473 2569 2199 1871 2000 1980 1835 1786 1808 1592 1694 1200 1067 1013 1638 2019 2008 2339 1918 2060 1907 2544 2647 2172 2393 2036 1517 1429 1528 1712 2004 2547
1742 1634 1722 1538 1768 1637 2265 2375 2671 2869 2220 2194 2146 2052 2188 2162 2127 2479 2677 2701 2652 2489 2719 2859 2864 2936 2727 2758 2847 2732 2908 3064 3358 2970 2930 2909 2817 2626 2486 2508 2776 2334 2134 1904 2199 2223 2153 2224 2535 2236 1890 2160 2172 2498 2198 1862 1609 1568 1686 1805 1983 1998 1804 1594 1286 927 857 1574 2103 1790 1868 1744 1708 2170 2942 2525 2167 2652 2239 1720 1710 1867 2168 2147 2157
1958 1945 2278 2314 2445 2515 2189 2372 2874 2768 2283 2052 2151 2184 2066 2221 2333 2360 2348 2280 2097 2003 2174 2528 2776 2794 2812 2721 2812 2925 2623 3285 2948 3082 2980 2976 2763 2548 2958 3013 2855 2470 2185 2022 1930 2088 2032 2581 2752 2388 2273 2559 2813 2824 2679 3234 2496 2054 1772 1959 1958 1912 1856 1722 1436 1070 586 538 932 1608 1510 1506 1235 1590 2020 2205 2045 1948 2373 2250 1584 1637 2070 2275 2682
1781 2033 2500 2596 2738 2509 2352 2441 2589 2622 2570 2595 2359 2257 1999 2419 2580 2231 2834 2545 2218 2108 1952 2351 2602 2742 2849 2977 2986 3068 2316 3478 3329 2806 2828 2795 2831 2792 2002 2049 2337 2167 1698 1927 1838 1747 1579 1733 2638 2756 2801 3051 3364 3506 3330 3210 2891 2754 2059 2084 2199 2130 1918 1900 1700 1290 878 721 776 1152 1361 1445 1413 1332 1592 1930 1866 1566 1495 1033 1258 1686 1459 2010 2942
1796 1962 2063 2365 2690 2544 2466 2572 2766 2702 2556 2640 2674 2598 2598 2884 3019 2945 3167 2912 2469 2208 2190 2492 2570 2582 2703 3185 3019 2064 1856 2252 2884 2429 2707 2390 2090 1836 2155 1608 1726 1718 1590 1767 2167 2148 1898 1683 1765 2242 2465 3097 3535 3424 2892 2547 3064 3214 2528 2343 2557 2275 2172 2035 1690 1238 831 668 691 873 1157 1318 1257 1242 1213 1369 1791 929 591 641 1172 1498 883 988 2320
1845 1840 2196 2671 2871 2673 2607 2829 2814 2543 2572 2511 2588 2737 2883 3062 3147 3113 2869 2846 2607 2535 2689 2828 3034 2760 2558 2708 1964 1470 1963 3476 2733 2876 2753 1653 1944 1827 2029 2141 2099 1776 1722 1961 2211 2526 2422 2178 2152 2233 2235 2475 3055 2965 2753 2104 2440 2737 2710 2594 2652 2251 1994 2139 1841 1346 909 759 731 791 985 1326 1325 1235 1110 1125 1294 914 600 708 995 1545 1368 1061 1344
2053 1950 2216 2718 2854 2656 2656 2771 2447 2272 2329 2324 2406 2490 2760 2908 2887 2910 2682 2404 2699 2936 3079 3019 3057 3160 2864 2842 2446 1463 1830 3054 2796 2687 2374 2262 1978 1943 2174 2249 1999 2222 2176 2105 2141 2377 2560 2442 1932 1571 1642 2170 2264 2554 2537 2484 2788 2752 2369 2794 2509 2044 1986 2041 2038 1669 1273 956 909 691 654 830 1314 1458 1248 902 972 1076 746 501 584 442 1097 1164 1517
2351 2330 2425 2749 2979 2856 2627 2659 2571 2592 2153 2132 2665 2722 2857 2903 2829 2881 2760 2608 2690 2969 3369 3198 3038 3142 2814 2534 2352 1537 1629 2424 2791 2671 2684 2425 2256 2071 2141 1985 2812 2424 2293 2294 2280 2173 2575 2666 2580 2046 1817 1782 1918 1914 2006 2032 2393 2604 2269 2432 2219 2258 2036 2038 2128 1864 1545 1210 873 815 740 649 902 1162 1153 1090 1074 1282 1061 562 485 663 976 1006 1160
2589 2722 2753 2991 3164 3097 2656 2454 2382 2461 2678 2336 2161 2019 2308 2423 2626 2721 2719 2729 3021 3395 3336 3059 3043 2706 2608 2391 1767 1427 1514 2498 2542 2356 2468 2148 2335 2412 2592 2583 2224 2302 2498 2483 2342 2189 2275 2211 2356 2291 2097 2086 2148 2108 2141 2174 2348 2404 2316 2168 2138 2460 2260 2024 2144 2043 1796 1330 1116 872 764 638 676 822 947 751 783 1010 940 668 375 438 724 884 1092
2798 2948 3075 3149 3304 3190 2881 2547 2215 1727 1487 1218 1227 1687 1798 2028 2385 2775 2928 3106 3262 3592 2934 2743 2751 2180 1467 1488 1323 1501 1698 2507 2506 2284 1958 1488 1410 1905 2048 2008 2019 1927 2248 2567 2566 2693 2305 2064 1330 1927 1806 1700 1698 1858 1995 1800 2084 2064 1911 1858 1935 2070 2277 2350 1888 1708 1622 1438 1476 1294 1115 964 782 678 614 622 828 1046 953 691 438 514 690 733 1052
2797 3125 3210 3266 3262 3089 2882 2647 2416 1877 1085 855 987 1625 1840 1831 1958 2559 2797 2937 3224 3442 3144 2534 2691 1607 1298 1282 1453 1722 2929 2895 2589 2384 2210 2168 2041 2006 1879 2046 2102 2091 2287 2217 2130 2162 2188 2113 1626 2014 1604 1631 1926 2152 1854 1756 1862 2008 2243 2271 2446 2391 2397 2233 1998 1724 1553 1468 1674 1625 1446 1280 1160 859 589 545 462 592 847 768 590 544 529 601 796
2746 2870 2963 3022 3030 2932 2791 2771 2498 2243 2106 2278 2260 1943 1912 1875 2037 2608 2498 2862 3275 3400 2806 2354 1564 1818 2184 1839 1999 2950 2952 2908 2579 2310 2109 2047 1956 1899 1924 1899 1648 1793 1730 1972 1679 1467 1770 1786 1933 2276 2134 1633 1831 2159 1667 2111 1616 1572 1713 1851 2299 2580 2455 2382 2139 1937 1601 1474 1641 1996 1710 1476 1354 1204 764 529 571 553 504 355 418 348 379 351 422
2463 2464 2568 2629 2859 2916 2563 2636 2621 2467 2490 2530 2455 2274 2041 2184 2210 2583 2830 3016 3149 2656 2176 1954 2204 2508 2793 2624 2826 2967 2670 2308 2238 2194 2061 1990 1792 1728 1572 1446 1520 1749 1420 1537 1625 1751 1786 1923 2097 2155 1965 1753 2033 1570 1330 1574 2157 1913 1614 1607 1763 1848 1967 2076 1861 1649 1637 1741 1669 1820 1839 1655 1217 1090 965 690 437 575 536 416 378 346 325 188 191
2558 2586 2435 2636 2883 2961 2722 2845 2903 2771 2881 2913 2961 2828 2586 2544 3051 3250 3258 3317 3116 2032 2566 2143 2610 2584 2483 2129 2125 2291 2402 2288 1864 1933 1786 1458 1342 1450 1278 1108 1497 1482 1404 1579 1827 1575 1808 2103 2517 2327 2061 1996 1958 2057 2451 2206 2026 1714 1592 1536 1787 2016 1950 1670 1574 1478 1544 1750 1696 1908 1848 1759 1676 1465 1188 1215 1061 730 714 751 686 536 583 399 105
3070 3077 3191 3411 3470 3214 3259 3304 3414 3324 3324 3243 3312 3190 2988 3025 3684 3491 3587 3176 2958 2517 2061 2075 2270 1922 2114 1848 2009 2031 1913 1982 1947 1790 1615 1489 1492 1553 1161 1370 1605 1542 1610 1602 1677 1980 2208 2334 2452 2527 2267 2086 2008 2063 1974 2102 2027 1557 1677 1826 1896 1958 2160 2224 2043 1934 1781 1916 1984 1910 1960 2074 2012 1732 1682 1637 1293 1248 1092 1131 1114 1094 972 877 473
3736 3842 4010 3961 3908 3846 3832 3770 3635 3418 3389 3542 3614 3483 3504 3575 3713 3646 3920 4280 4367 2562 2000 2355 2519 2318 2391 2352 1946 1858 1697 1807 1894 1672 1578 1580 1570 1612 1572 1727 1874 1740 1994 1828 1738 2288 2317 2473 2598 2587 2268 2324 2254 2388 2458 2531 2345 1876 1516 2133 1613 1971 2193 2335 2203 2005 2173 2087 2003 2030 2370 2070 1970 2127 2058 1898 1916 1746 1531 1339 1198 1236 1243 1118 1038
3983 3957 3880 4026 3946 3915 4084 4010 3824 3540 3521 3604 3944 3869 3845 4116 4221 4038 4409 4409 3904 2584 2365 2351 2381 2153 2031 1497 1442 1374 1648 1826 1963 2104 1641 1623 1673 1610 1624 1843 1545 1687 1580 1625 2143 2371 2412 2502 2666 2554 2388 2427 2466 2499 2856 3063 2743 2383 2064 1868 1947 2226 2336 2179 2245 2228 2181 2312 2284 2381 2507 2734 2640 2633 2267 2130 2079 2046 2011 1904 1910 1823 1464 1208 1096
4191 3984 4034 4141 4167 4310 4344 4292 4014 3866 3851 3959 3774 3953 4126 4440 4407 4512 4570 4181 3797 2980 2510 2790 2619 2374 2141 1912 1657 1720 1854 1853 2133 1846 1768 1718 1581 1599 1502 1494 1465 1579 1482 1680 2114 2058 2229 2460 2345 2116 2131 2659 2679 2772 2709 3054 2770 2486 2130 2256 2123 2209 2194 2143 2103 2157 2252 2309 2567 2689 2965 3076 3044 2535 2461 2262 1956 2084 2312 2401 2132 2141 1812 1753 1521
4084 4252 4320 4288 4447 4716 4527 4517 4412 4293 4131 4003 3759 3688 3714 3770 3660 3938 3920 3867 3731 3700 3653 3498 3211 2913 2876 2578 2475 2162 2156 1995 2438 2611 1996 1741 1447 1408 1709 1697 1589 1637 1758 1937 2083 1962 1983 2241 2283 2253 2285 2210 2111 1967 1898 1872 1683 1621 2019 1864 1996 2123 2168 2039 2145 2149 2052 2126 2356 2669 2639 2571 2509 2337 2462 2711 2621 2469 2454 2626 2792 2203 2120 1642 2011
3572 3998 4243 4580 4737 4919 4766 4712 4653 4432 4206 3781 3572 3447 3312 3382 3245 3171 3409 3740 3640 3723 3792 3354 2952 2512 2128 2080 2161 2212 1955 1940 1812 1946 2367 2061 1995 1877 1745 1785 1829 1932 2078 2162 2575 2424 2354 2396 2459 2489 2187 2042 1960 2087 2571 2159 2026 2291 2288 1944 1700 1878 1805 2139 1636 1718 2144 2191 1992 2529 2228 1775 1758 1769 2293 2672 3141 3125 2925 2324 2213 2022 2809 2348 2703
3612 4253 4364 4546 4818 4817 4831 4628 4476 4258 4023 3710 3267 3445 3399 3347 3309 3282 3258 3462 3408 3524 3550 2609 2500 2576 2545 2220 1993 1950 1882 1866 2080 1826 2206 2063 1944 2132 2297 2531 2554 2627 2658 2936 2777 2794 2587 2406 2469 2328 2299 2063 2066 1955 1740 1671 1426 1226 1902 2347 2113 2081 1626 2026 2616 2430 1900 2313 1648 1726 1922 1652 1701 2092 2505 2258 2966 3173 2909 2697 2508 2326 2701 2744 2731
4025 4428 4485 4712 4705 4884 4871 4640 4569 4378 4139 3818 3329 3368 3203 3257 3329 3236 2999 3495 3328 2963 2735 2587 2326 2492 2294 2316 2242 2268 2055 1904 2136 2016 2509 2857 2692 2618 2452 2390 1816 1590 2084 2235 2096 2315 2509 2420 2329 2214 2035 2048 1774 1761 1600 1430 1395 1350 1261 1551 1793 2107 1485 1569 1406 1470 1712 1470 1514 2203 1884 2074 1817 1925 2312 2249 1897 2271 2442 2415 2386 2403 2257 2197 2500
4278 4573 4735 4591 4537 4632 4733 4618 4689 4503 4262 3876 3350 3299 3303 3295 3365 3236 3092 3045 2932 2764 2613 2520 2538 2514 2476 2282 2314 2247 2126 1996 2123 2175 2167 1890 1600 1645 1504 1188 1066 955 1100 1283 1008 1034 1233 1286 1178 1460 1606 1837 1577 1435 1295 1263 1218 1271 1258 1291 1968 2119 2331 2168 2031 1804 1500 1590 1736 1839 1900 2309 1842 2044 2040 2252 2436 2440 2471 2150 1908 1918 1878 1896 1488
4436 4578 4601 4465 4405 4406 4391 4689 4776 4600 4262 3737 3309 3279 3387 3489 3420 3221 3117 2925 2856 2651 2567 2609 2592 2608 2474 2475 2347 2233 2046 2176 1958 1987 1891 1798 1463 1587 1332 1190 854 789 559 521 534 464 650 1060 856 1092 1414 1486 1188 1152 927 863 983 942 1043 1028 1814 1853 2206 2419 2553 2582 2557 2336 1861 1730 1517 1427 1686 2079 2421 2860 3033 2781 2637 2774 2749 2764 2731 2377 2233
4534 4449 4082 4482 4426 4341 4437 4634 4639 4418 3928 3587 3397 3578 3855 3457 3525 3502 3288 3110 3030 2925 2595 2506 2403 2358 2448 2428 2448 2389 2120 2046 1860 1718 1655 1509 1466 1285 982 823 756 667 535 444 262 247 309 526 461 615 879 942 801 806 740 592 542 548 594 618 1358 1740 1638 1861 2031 1958 2056 2228 1575 1539 1549 1999 1809 2100 2202 2262 2878 3025 2935 2917 2938 3094 2912 2548 2498
3943 4406 4228 4648 4304 4325 4500 4692 4646 4403 4122 3867 3533 3681 3508 3430 3527 3315 3330 3254 2931 2725 2390 2239 2187 2334 2382 2357 2392 2067 2087 1992 1786 1617 1502 1365 1086 1133 893 758 581 448 444 260 184 173 195 224 302 456 331 479 396 127 261 366 0 0 9 308 874 1108 1012 979 982 1174 1402 1713 1943 1817 1905 1995 2079 2303 2207 1607 1642 2309 2417 2478 2746 2885 2840 2772 2585
4073 4055 4647 4730 4408 4327 4570 4880 4680 4614 4544 4061 3484 3607 3382 3308 3150 3043 3112 3050 2643 2362 2243 2078 1918 1978 1980 1994 2033 2020 1973 1964 1769 1535 1521 1387 1093 819 757 477 347 276 226 235 143 116 153 195 309 335 414 529 236 23 0 0 0 0 0 214 477 426 660 734 642 922 1027 1050 1050 1048 1385 1646 1744 2138 1892 1325 1130 1120 1751 1285 1460 2539 2624 2676 2858
3701 3702 4652 4718 4260 4132 4700 4266 4525 4581 4434 4146 3597 3328 2867 2633 2647 2731 2758 2651 2396 2316 2079 2059 1821 1937 2047 1893 2026 1975 1959 1892 1787 1371 1072 867 758 655 473 343 272 278 288 228 241 207 170 135 231 418 143 325 58 0 0 0 0 0 0 71 207 308 264 356 387 534 676 815 850 880 980 1152 1351 1439 1131 1078 955 1002 1810 1524 2065 1849 2252 2701 2686
3575 4194 4638 3961 4135 4202 4221 4053 4170 4202 4342 4426 4074 3738 3352 3071 2658 2444 2424 2298 2312 2288 2176 2125 1971 1821 1815 1874 1884 1858 1731 1518 1207 953 907 874 642 456 415 359 352 264 292 292 128 109 167 225 198 158 86 181 64 24 11 1 2 1 1 36 78 136 140 145 139 184 306 472 461 608 781 1128 1128 1014 822 838 905 880 1592 1775 1427 1269 2026 2192 2514
2942 3700 4148 4216 4406 4458 3788 3832 3648 4094 4022 4161 4077 3991 3714 3392 2953 2837 2768 2761 2726 2496 2608 2421 2165 2078 1797 1943 1841 1690 1555 1389 1012 964 842 584 545 426 278 226 272 212 186 154 155 100 148 178 168 147 104 68 89 44 0 0 0 0 0 4 46 41 46 64 109 144 143 163 176 302 744 825 654 585 590 600 624 593 765 1690 1856 1891 1901 2196 2015
3080 3124 3599 4168 4268 3649 3190 3282 3209 3977 3528 3507 3742 3755 3883 3655 3304 3144 3075 3054 3021 2768 2632 2324 2237 2007 1777 1908 1762 1540 1322 1280 1142 1063 765 529 481 230 240 186 153 170 186 207 114 69 36 26 43 30 20 37 25 47 6 1 0 0 0 0 13 42 20 40 79 112 116 98 184 317 428 470 421 452 523 594 616 623 614 970 1300 1563 1374 1214 1087
3250 3484 3577 3813 3566 3425 3210 2820 3279 3742 3271 3416 3516 3640 3949 3936 3635 3357 3379 3283 3134 2856 2622 2387 2204 1967 1868 1842 1625 1508 1434 1178 1034 866 587 441 316 230 139 141 137 138 118 97 128 54 14 11 8 6 4 8 17 15 17 4 1 2 0 0 0 6 6 14 40 81 80 106 228 459 358 258 125 247 474 538 608 662 635 914 824 816 813 777 770
3052 3370 3216 3308 3447 3361 3213 2988 3315 3432 3144 3448 3307 3765 3829 3710 3280 3050 2979 3116 3286 3019 2718 2539 2284 2045 1849 1734 1620 1565 1328 972 853 649 474 410 216 140 71 95 123 103 94 74 90 32 12 15 11 12 18 13 18 18 1 17 2 0 0 0 0 0 0 0 3 29 89 79 118 206 96 0 0 0 322 328 460 553 553 504 530 716 597 525 528
2511 2632 2970 2987 3356 3311 2970 2805 3107 3496 3332 3469 3325 3979 3894 3586 3412 3231 2884 3294 3310 2887 2691 2377 2217 1925 1766 1563 1601 1463 1073 891 767 553 446 353 139 51 77 87 52 72 60 23 46 35 29 7 9 14 9 13 16 18 6 3 1 0 0 0 0 1 5 5 12 18 12 10 13 28 10 0 21 26 37 51 244 470 522 456 369 328 292 307 384
2067 2540 3074 2939 3018 3294 3186 2793 3123 3574 3445 3639 3463 4077 4029 3845 3655 3422 3364 3426 2984 2727 2470 2224 1972 1778 1526 1411 1122 1020 980 724 648 534 287 144 62 48 75 164 105 53 25 52 35 34 16 56 31 21 20 16 16 26 15 6 0 0 0 0 1 3 2 5 1 3 2 4 32 57 74 2 1 14 71 263 516 565 528 557 445 264 54 305 534
1482 1555 2694 2962 2500 2928 2950 3020 3081 3312 3437 3725 3595 3839 4161 4034 3808 3848 3739 3376 3037 2745 2360 2146 1822 1556 1363 1208 1138 941 797 698 528 251 95 48 14 16 5 40 51 45 85 15 16 10 6 30 36 14 18 12 15 15 19 8 0 1 2 0 0 0 0 0 0 0 0 2 7 64 70 118 162 181 82 367 482 533 542 550 289 3 203 238 460
1374 1407 1538 2487 2700 2268 2784 2858 2885 3056 3141 3272 3424 3396 3835 3912 3906 3554 3158 3074 2792 2512 2302 1931 1768 1264 1082 776 494 359 280 290 267 73 22 10 10 4 1 6 3 4 12 10 50 8 7 6 29 20 9 18 11 12 16 15 13 21 7 8 4 3 0 0 2 7 0 10 22 6 0 0 2 156 233 258 244 218 157 126 256 230 145 155 221
1258 1253 1537 1651 1977 2615 2577 2353 2858 2991 3063 2989 3094 3210 3136 3319 3228 2522 2700 2686 2430 2071 1906 1922 1489 1232 844 719 504 327 297 214 146 65 38 20 9 2 0 3 3 1 2 3 2 6 12 7 7 10 10 9 12 10 12 10 26 2 4 4 3 7 5 1 0 6 12 7 7 0 0 4 5 3 2 30 111 139 134 133 22 38 42 38 6
1109 1121 1190 1290 1488 1674 1824 2189 2690 2944 2872 3107 3054 2936 2883 2963 3078 2476 2631 2571 2198 1948 1896 1779 1533 1386 877 747 458 361 290 235 169 100 22 3 0 0 0 3 4 18 1 2 1 1 3 4 3 11 14 9 7 11 9 0 0 0 0 9 2 0 2 5 0 0 0 6 11 13 5 12 8 4 8 9 15 27 9 4 4 0 15 59 52
944 1039 950 978 1070 1384 1528 1924 1976 2349 2880 2836 2916 2676 2689 2107 2067 2277 2553 2588 2378 2014 2034 1770 1680 1316 884 702 552 455 421 260 72 78 13 0 0 0 0 0 0 0 0 0 0 0 0 0 4 7 1 2 16 0 0 0 0 0 0 0 0 0 0 0 0 0 0 13 12 12 9 8 7 10 6 8 8 9 8 3 3 17 19 49 105
820 827 804 1188 866 766 995 1602 2137 2341 2365 2496 2888 2752 2148 2012 2146 2487 2776 2808 2355 2102 1805 1655 1719 1708 1325 984 771 644 682 423 167 60 20 0 0 0 0 0 0 0 0 0 0 0 0 0 1 0 0 0 0 0 0 0 0 0 0 0 0 0 0 0 0 0 1 15 6 6 8 10 9 12 12 13 8 4 14 33 82 129 134 141 201
Wind_Speed
17 18 15 13 8 6 4 5 4 4 3 2 1 2 2 3 3 4 3 3 2 2 2 1 2 2 3 4 4 5 5 6 7 7 7 6 6 5 6 6 6 7 6 5 4 5 7 7 6 5 4 3 3 2 3 4 4 4 4 2 3 3 2 2 3 2 1 3 7 5 8 8 8 6 6 7 8 10 10 13 14 14 15 15 14
16 18 14 13 9 7 5 6 5 4 4 2 0 1 2 3 3 3 2 3 3 3 2 1 1 1 3 3 4 5 5 6 7 7 7 7 7 7 6 6 6 6 6 5 5 4 5 6 5 5 4 4 4 4 3 2 4 5 3 1 2 1 1 2 4 1 2 3 3 5 8 9 8 7 6 5 6 6 11 13 14 9 12 14 16
15 16 15 12 11 9 6 7 7 5 4 3 3 2 2 1 2 2 2 2 2 3 2 1 0 1 2 4 4 5 5 6 7 8 8 8 8 7 6 6 6 6 6 6 6 4 4 5 6 4 4 4 3 2 0 1 3 4 3 1 3 1 2 2 3 1 2 2 5 4 6 5 10 7 6 6 6 6 8 11 11 9 9 13 14
14 15 14 12 11 10 8 7 7 6 7 7 5 4 5 4 4 3 2 1 0 2 2 2 1 1 2 5 5 6 7 7 8 8 7 7 6 5 5 4 4 4 4 4 5 6 6 5 5 5 5 4 4 4 4 2 1 2 3 2 1 3 1 2 2 3 3 3 4 4 3 3 4 5 2 4 5 3 4 5 6 9 9 11 13
13 14 15 11 10 11 9 8 8 7 8 8 7 6 7 5 5 4 3 2 2 2 3 1 2 2 4 4 6 6 8 8 7 5 5 6 6 5 4 4 4 4 4 4 5 6 7 6 6 6 6 6 6 5 4 3 2 1 1 1 3 2 1 1 1 1 5 10 5 3 4 4 5 4 4 7 4 6 5 3 6 5 9 10 10
11 14 15 13 11 11 10 6 7 8 9 9 8 7 7 7 7 6 5 4 4 5 5 5 4 3 4 4 4 4 4 4 3 3 3 3 4 5 5 5 5 5 5 5 5 6 6 6 6 6 6 6 6 6 6 5 3 2 1 2 2 3 1 1 0 2 5 14 7 3 3 2 4 2 3 4 5 6 6 8 9 3 6 7 8
9 12 13 14 13 11 8 6 6 8 10 11 10 8 8 8 7 7 6 6 6 7 8 6 5 4 3 2 3 3 3 3 4 3 3 4 5 5 7 6 5 5 4 5 5 5 6 7 6 6 6 7 7 6 5 5 4 1 1 2 1 2 3 1 1 1 5 14 9 6 6 7 5 3 2 3 3 7 4 5 6 6 7 5 6
10 10 11 11 13 10 8 7 8 9 11 13 13 12 10 9 9 8 7 7 8 9 9 7 5 4 3 1 2 2 1 3 3 3 4 6 6 6 7 7 6 6 6 6 5 5 5 5 5 5 6 7 7 7 7 7 8 7 5 3 3 3 1 1 1 2 1 9 11 8 6 7 7 6 6 3 4 3 3 5 10 7 7 6 5
9 9 9 10 11 11 10 10 9 10 12 15 18 16 12 9 10 9 8 8 7 9 9 8 5 4 4 3 2 2 2 3 4 3 3 4 4 6 6 7 7 6 6 6 5 5 5 5 4 5 5 6 7 7 7 7 7 6 5 2 1 1 1 1 2 0 1 4 10 7 3 5 7 7 5 6 3 3 4 1 1 6 10 7 6
8 8 10 12 13 13 12 12 11 13 14 25 27 17 13 14 13 11 10 10 8 7 7 7 5 3 4 3 1 1 3 3 3 4 3 3 4 5 6 6 6 6 5 4 5 4 4 4 3 2 4 5 6 8 9 10 8 6 5 3 2 2 2 1 1 1 0 1 2 7 5 4 5 6 6 4 5 5 4 1 2 3 2 5 6
7 9 11 15 12 13 13 16 15 17 21 26 17 14 15 16 15 11 11 12 10 9 7 6 5 3 3 2 0 0 2 3 3 2 3 3 4 4 5 6 6 6 6 5 3 2 2 2 3 3 5 5 6 7 7 8 7 6 5 4 3 2 2 3 2 1 0 0 1 4 4 4 3 2 2 2 3 3 4 4 3 6 3 7 6
7 8 11 14 14 15 19 20 19 20 23 23 15 14 16 19 16 12 13 15 14 11 9 6 6 4 3 3 2 1 1 3 3 1 2 3 3 4 5 7 6 5 5 6 5 3 3 3 3 5 6 7 6 6 8 8 9 9 8 7 5 2 3 4 4 2 2 3 3 2 4 4 5 4 5 5 4 4 3 3 4 5 5 6 6
11 8 8 12 15 18 20 22 22 21 23 23 14 13 16 19 16 13 14 15 14 11 8 6 6 5 3 2 3 3 2 3 4 2 4 3 3 3 5 5 6 6 6 5 4 4 6 5 4 5 5 5 7 9 9 10 11 11 10 7 6 5 3 3 3 3 3 1 2 3 4 5 6 6 7 7 6 7 6 4 4 5 3 9 6
16 14 11 9 11 16 19 21 22 23 25 23 16 14 17 17 16 13 14 16 15 11 7 6 5 5 4 3 4 7 4 5 8 6 5 5 4 2 3 3 5 5 4 5 7 6 4 4 5 4 4 5 5 6 7 8 8 9 8 7 6 6 6 4 4 5 3 2 2 2 3 4 6 7 7 7 6 7 6 5 4 6 3 12 6
16 16 15 13 12 15 17 20 22 24 26 23 19 17 17 16 16 15 15 16 14 10 7 5 6 5 5 6 7 10 2 8 11 10 13 12 12 6 4 3 4 5 6 7 8 8 8 7 5 4 3 3 4 4 5 5 7 7 8 8 8 6 5 5 5 4 3 2 2 3 3 4 5 6 7 7 8 7 6 5 5 3 4 8 9
16 16 16 16 15 16 17 20 23 24 24 21 20 20 18 15 15 15 13 13 12 10 7 8 8 8 6 9 12 7 4 11 14 11 12 14 12 8 5 4 6 7 7 8 8 6 6 5 4 3 3 4 3 3 4 5 6 6 7 6 5 5 5 3 3 4 3 2 0 2 3 3 5 6 7 8 8 8 7 7 5 5 4 5 6
17 16 16 16 16 16 17 19 21 22 21 16 19 20 16 15 15 14 11 10 10 9 8 10 10 9 8 9 12 10 6 9 9 8 8 11 11 9 8 6 5 6 7 7 6 7 6 5 4 5 4 4 4 5 5 4 5 6 6 6 6 6 4 3 3 2 2 2 2 3 3 4 4 6 6 7 8 8 7 6 5 3 5 4 4
20 18 16 16 16 17 17 18 19 20 19 13 18 20 18 15 14 12 10 9 9 8 10 12 12 11 9 8 13 11 6 4 7 9 10 10 10 10 9 6 7 6 8 9 9 7 6 4 5 6 6 6 6 6 4 4 4 5 4 5 5 5 4 3 2 2 1 3 2 3 5 5 5 6 7 6 8 11 8 6 6 6 6 4 6
19 18 16 15 14 14 15 18 18 16 14 10 16 19 17 15 12 11 9 8 8 10 12 14 15 13 10 12 15 9 2 2 5 8 10 9 8 9 8 8 7 7 8 8 6 7 9 6 4 4 3 3 4 4 4 4 3 3 3 2 2 2 3 2 3 3 3 4 5 4 5 5 5 5 6 7 8 10 9 8 7 7 7 6 6
19 19 17 15 14 13 13 15 17 15 11 5 11 16 12 11 10 9 9 8 9 12 13 15 13 11 11 14 9 3 3 3 6 8 8 7 6 7 8 8 7 8 8 7 6 7 7 6 3 3 2 3 2 2 1 1 1 2 3 2 2 2 2 2 2 4 6 6 7 7 7 6 6 7 6 7 8 9 8 8 9 9 9 8 8
18 18 18 16 13 11 10 11 14 13 10 5 1 3 5 5 5 7 7 8 9 13 14 16 12 10 12 12 7 6 5 5 6 8 9 9 8 8 10 11 12 9 8 7 6 5 6 5 3 5 5 5 5 4 4 4 4 3 2 2 2 2 2 3 3 3 5 6 8 9 8 8 8 7 8 7 8 8 9 9 9 9 10 10 11
16 18 18 15 12 10 8 7 9 11 10 7 3 1 3 3 4 6 6 7 10 13 16 17 7 9 11 10 8 7 5 7 8 8 10 10 10 9 9 11 9 8 7 7 4 3 7 6 1 3 3 5 5 8 9 10 5 3 2 3 3 3 2 2 4 4 5 6 8 10 9 9 10 9 8 8 8 8 9 9 11 11 10 10 13
15 17 16 14 11 8 6 6 6 9 9 7 4 0 2 2 3 5 5 7 11 18 17 10 7 8 11 8 6 5 6 8 8 8 9 9 9 8 8 10 9 8 7 6 1 3 7 5 3 3 3 4 4 9 4 4 6 8 5 2 4 5 4 4 5 6 6 8 8 9 9 9 10 11 11 10 9 9 9 9 9 11 11 12 13
15 15 14 12 10 7 5 5 3 3 5 5 3 0 3 3 4 5 6 8 11 20 16 7 6 9 11 9 6 5 6 8 8 7 7 6 5 5 5 8 9 7 6 5 3 1 6 6 2 2 1 2 2 4 5 6 5 4 5 6 3 5 5 5 5 6 8 9 9 10 9 10 11 11 12 12 12 12 12 12 11 12 12 12 13
16 16 15 13 9 6 4 4 3 2 1 3 2 1 3 4 4 5 6 10 13 21 11 6 5 10 9 7 5 3 4 5 5 4 4 4 3 3 3 6 7 5 6 4 3 2 4 3 1 2 2 1 1 3 2 4 5 4 3 5 6 5 6 6 7 7 8 9 10 10 11 12 13 13 13 13 13 12 13 13 13 14 14 15 15
16 15 14 12 8 4 3 3 3 2 2 3 3 3 4 4 4 5 7 10 15 20 8 7 3 7 7 6 3 2 2 2 3 2 2 1 1 1 2 4 4 4 4 6 5 3 4 2 1 3 3 2 2 0 1 0 2 3 4 7 2 5 6 7 7 8 8 10 11 12 14 15 12 15 15 14 14 13 15 15 14 15 16 17 17
16 14 12 11 8 6 4 3 3 3 3 4 4 4 5 5 5 6 9 9 12 15 6 7 3 5 6 3 2 4 4 3 3 2 2 2 2 1 2 3 3 2 2 4 4 3 2 1 2 3 4 2 2 2 0 1 1 1 1 3 3 4 5 6 7 8 9 9 10 12 14 15 16 16 15 15 15 15 16 16 17 17 18 17 18
14 14 14 12 11 9 7 5 4 3 3 4 4 4 4 4 4 6 7 6 7 10 6 7 6 2 2 2 4 5 5 4 3 3 3 4 3 2 2 4 5 3 3 3 4 3 2 1 2 3 1 1 1 1 1 1 1 1 0 2 2 2 4 5 6 8 8 10 12 13 15 16 17 19 16 13 14 17 17 17 18 19 18 18 18
16 15 14 12 11 10 9 7 6 4 4 4 4 3 3 3 2 3 4 5 5 5 3 6 8 7 5 3 5 5 6 4 3 3 3 3 4 3 2 3 4 4 5 6 5 4 3 2 2 2 1 0 1 1 1 3 3 4 3 3 3 3 4 5 6 6 7 9 12 14 16 16 17 15 12 13 13 14 16 16 18 20 19 16 19
16 16 14 12 11 10 10 9 7 6 5 4 3 3 3 2 2 2 3 4 3 1 1 5 9 10 10 8 6 6 5 3 2 1 2 2 2 2 1 2 2 3 2 2 1 2 2 2 2 1 1 0 1 3 14 14 13 9 8 8 7 7 6 8 9 7 9 10 9 13 18 16 14 11 11 11 12 13 14 16 21 19 21 18 19
14 14 13 12 10 10 9 8 8 7 6 4 2 3 3 4 4 4 3 4 2 1 2 5 6 8 9 9 9 7 6 5 4 3 3 2 2 2 1 2 1 1 2 2 2 4 4 2 3 2 2 2 2 9 14 14 12 11 5 4 6 6 8 8 8 10 11 12 13 12 16 21 17 11 11 11 10 13 17 19 17 17 20 20 18
14 13 12 12 12 11 10 8 7 7 7 6 5 4 4 4 4 4 4 4 2 1 1 2 3 4 5 7 8 7 8 7 7 5 3 3 3 2 2 3 3 3 4 3 5 4 5 5 4 5 5 5 8 6 10 10 9 8 5 1 3 7 10 8 8 9 12 13 10 15 14 18 17 15 11 15 16 15 16 16 16 18 19 17 17
15 15 14 13 13 13 11 10 8 8 8 9 7 6 5 5 4 4 5 3 3 2 1 1 1 2 4 5 5 5 5 5 4 3 3 2 2 2 1 2 2 4 5 5 4 4 4 4 2 3 4 3 10 10 9 10 8 8 7 3 4 4 6 8 8 9 9 10 11 12 12 17 17 18 12 13 15 16 18 18 17 16 17 18 19
14 15 16 15 13 13 11 9 8 8 9 8 7 7 6 7 7 7 5 5 5 4 3 3 3 4 4 3 3 3 3 2 1 1 1 0 1 1 3 3 3 3 3 4 4 3 2 2 2 2 0 4 10 13 10 9 9 8 8 5 5 7 8 9 10 11 13 13 12 13 16 13 11 15 16 15 15 15 16 18 19 21 21 20 21
14 15 16 16 16 15 11 7 7 8 8 7 7 7 8 8 9 8 7 6 5 6 4 4 4 4 3 3 3 3 3 2 1 1 1 1 2 4 3 3 3 2 2 1 2 2 1 1 1 1 1 5 12 14 11 11 11 11 10 5 7 8 11 12 12 13 13 15 18 15 15 17 17 15 17 15 17 17 18 19 19 21 21 20 20
14 14 14 16 17 16 12 8 7 8 7 6 7 7 8 8 9 8 7 6 6 5 5 4 4 4 4 4 3 3 3 4 3 3 3 3 4 4 3 4 4 3 3 2 1 1 1 1 2 2 3 4 14 15 15 13 nan nan nan 7 7 8 9 11 13 15 15 16 16 16 16 18 17 17 20 22 18 18 18 19 21 21 22 21 20
13 14 14 14 16 16 13 11 9 9 8 7 7 8 8 9 8 8 7 6 6 6 6 6 5 5 4 4 5 5 6 5 5 4 4 5 5 4 5 5 4 4 3 3 4 3 4 4 4 5 5 6 16 nan nan nan nan nan nan 8 7 8 9 10 11 12 13 14 15 17 18 17 17 18 21 24 23 19 21 21 20 23 23 22 22
11 13 15 15 14 15 14 11 12 10 9 9 9 8 8 8 7 7 6 6 5 5 6 6 6 6 6 6 6 6 8 8 7 6 5 5 5 5 5 5 4 4 4 5 6 5 5 5 6 7 8 9 nan nan nan nan nan nan nan nan 8 9 9 10 11 12 13 14 14 13 14 14 16 18 28 27 24 22 22 23 26 25 25 23 23
13 16 18 18 15 15 15 13 13 13 12 12 11 9 7 5 5 4 4 3 3 3 4 4 4 5 5 6 7 7 8 9 8 8 7 7 7 6 5 6 5 5 6 7 6 7 6 7 8 9 nan 8 nan nan nan nan nan nan nan nan nan 10 10 11 11 12 14 15 16 17 15 15 17 22 28 26 25 23 21 23 25 25 26 25 25
16 18 20 21 20 18 15 14 13 14 15 14 12 8 6 4 4 3 3 2 2 2 3 3 3 4 5 5 6 7 8 9 9 9 9 9 9 9 9 8 7 7 9 9 7 8 8 9 10 10 10 nan nan nan nan nan nan nan nan nan nan nan nan nan 13 14 15 16 17 18 20 28 25 26 23 24 23 21 21 21 24 27 27 28 29
19 19 20 23 22 20 17 12 11 12 12 13 11 8 6 5 5 4 4 5 5 5 5 5 5 5 6 7 7 8 9 9 9 10 10 10 10 10 10 10 10 9 9 11 10 nan nan nan nan nan nan nan nan nan nan nan nan nan nan nan nan nan nan nan nan 15 17 nan 20 20 24 33 27 26 27 25 22 20 21 23 25 29 32 33 29
27 27 22 20 21 20 16 12 11 10 10 11 10 9 8 8 8 7 7 8 9 9 9 8 8 8 8 8 9 9 9 9 9 10 10 9 10 9 10 11 11 11 11 nan 11 nan nan nan nan nan nan nan nan nan nan nan nan nan nan nan nan nan nan nan nan nan nan 20 21 23 28 30 30 30 28 28 26 22 21 28 35 34 33 31 30
30 27 23 19 19 19 16 14 14 12 11 11 11 11 11 11 10 10 11 13 13 13 13 12 12 11 11 10 10 10 10 9 9 9 8 8 10 9 nan nan 9 10 nan nan nan nan nan nan nan nan nan nan nan nan nan nan nan nan nan nan nan nan nan nan nan nan nan nan 24 25 nan nan nan nan 31 30 30 23 27 35 34 32 29 29 28
36 32 29 23 19 18 17 15 16 15 15 14 14 15 14 14 14 16 17 18 18 17 16 15 14 13 13 12 12 12 11 11 10 9 8 8 9 nan nan nan nan nan nan nan nan nan nan nan nan nan nan nan nan nan nan nan nan nan nan nan nan nan nan nan nan nan nan nan nan nan nan nan nan nan nan nan 34 29 34 36 30 28 28 28 29
46 42 36 26 21 20 20 18 19 19 18 17 17 18 18 16 19 21 22 23 22 22 19 17 16 15 14 14 14 13 13 12 12 11 9 8 nan nan nan 10 10 nan nan nan nan nan nan nan nan nan nan nan nan nan nan nan nan nan nan nan nan nan nan nan nan nan nan nan nan nan nan nan nan nan nan 32 34 32 32 30 28 27 nan 28 29
50 49 44 36 26 23 22 21 21 20 21 20 19 20 19 19 22 25 26 27 27 26 23 20 18 16 16 16 15 15 15 14 12 11 nan nan nan nan nan nan nan nan nan nan nan nan nan nan nan nan nan nan nan nan nan nan nan nan nan nan nan nan nan nan nan nan nan nan nan nan nan 27 30 29 nan 31 31 33 31 30 30 nan 28 29 30
52 51 50 46 39 29 27 24 22 21 22 22 21 21 22 24 25 27 29 30 31 30 29 25 21 18 16 15 14 14 13 12 10 nan nan nan nan nan nan nan nan nan nan nan nan nan nan nan nan nan nan nan nan nan nan nan nan nan nan nan nan nan nan nan nan nan nan nan nan nan nan nan nan 31 31 31 29 28 29 29 30 30 30 29 30
51 51 50 50 48 44 38 31 27 26 25 25 25 25 27 28 28 28 32 33 33 31 30 27 24 20 18 17 15 15 12 13 14 nan nan nan nan nan nan nan nan nan nan nan nan nan nan nan nan nan nan nan nan nan nan nan nan nan nan nan nan nan nan nan nan nan nan nan nan nan nan nan nan nan nan nan 32 30 29 28 nan nan nan nan nan
51 51 52 51 49 48 45 41 36 32 30 29 30 31 32 36 35 33 33 33 33 31 30 29 27 23 22 21 18 18 15 13 16 17 nan nan nan nan nan nan nan nan nan nan nan nan nan nan nan nan nan nan nan nan nan nan nan nan nan nan nan nan nan nan nan nan nan nan nan nan nan nan nan nan nan nan nan nan nan nan nan nan nan nan nan
54 49 48 52 53 51 49 41 38 35 33 32 33 37 38 44 41 38 35 34 33 32 31 29 29 27 27 27 23 21 20 17 nan nan nan nan nan nan nan nan nan nan nan nan nan nan nan nan nan nan nan nan nan nan nan nan nan nan nan nan nan nan nan nan nan nan nan nan nan nan nan nan nan nan nan nan nan nan nan nan nan nan nan nan 28
55 51 47 50 53 53 51 49 44 36 33 33 36 42 47 45 40 39 37 34 32 32 30 29 28 26 26 26 25 21 21 20 18 nan nan nan nan nan nan nan nan nan nan nan nan nan nan nan nan nan nan nan nan nan nan nan nan nan nan nan nan nan nan nan nan nan nan nan nan nan nan nan nan nan nan nan nan nan nan nan nan 26 26 27 28
Wind_Direction
261 265 273 275 267 254 239 233 213 219 205 194 104 62 37 42 11 353 357 355 323 319 305 293 268 239 213 217 228 232 215 206 194 192 193 203 212 215 221 205 209 201 202 204 205 198 191 190 184 178 157 144 140 125 122 133 136 102 73 59 122 143 163 181 251 221 68 343 318 350 311 331 350 336 331 359 4 13 9 35 48 46 47 49 44
265 267 274 280 271 263 241 225 225 229 216 205 357 43 10 18 10 357 338 357 9 349 319 2 281 247 240 222 223 220 230 209 202 198 197 208 223 209 211 205 208 209 207 211 214 205 199 196 193 181 176 173 185 174 140 99 84 69 72 81 16 129 151 192 251 130 13 311 316 320 328 340 357 347 321 348 348 22 4 29 47 34 55 59 50
266 268 270 274 278 276 251 234 226 223 240 239 232 235 268 315 316 320 309 348 18 7 356 18 299 234 236 241 219 220 213 213 202 204 204 198 216 215 206 208 209 212 216 226 225 222 209 199 191 198 197 193 211 195 88 51 52 57 46 63 169 90 57 294 279 297 57 305 296 317 307 2 338 345 310 335 323 9 45 11 38 30 55 59 58
270 268 267 268 276 273 262 249 237 228 238 235 234 244 238 237 260 285 295 325 334 2 357 16 13 256 226 221 228 203 216 218 210 205 204 200 204 222 220 211 210 199 226 229 232 234 231 220 205 195 209 219 208 207 200 168 56 59 62 14 316 85 54 266 282 324 18 266 278 298 338 359 344 318 324 331 333 346 73 62 12 50 52 58 56
266 266 262 258 266 271 263 251 249 244 245 245 248 246 228 256 252 262 247 249 225 275 305 284 278 264 245 240 226 222 208 212 224 212 206 208 194 205 220 234 212 195 212 227 229 238 243 236 221 208 210 217 210 210 208 168 132 88 323 241 47 92 180 235 297 17 300 282 291 345 332 339 333 343 60 347 324 7 13 72 67 45 49 50 58
267 272 276 271 262 258 259 258 258 255 251 249 254 256 248 243 250 255 244 253 274 291 292 273 259 261 269 264 266 248 232 230 224 213 217 220 206 205 203 217 223 215 214 216 224 235 249 247 231 211 212 229 223 203 193 189 177 131 95 12 61 15 245 253 141 322 300 289 293 310 292 327 360 353 32 3 325 11 12 353 44 26 55 58 38
263 270 281 281 270 263 258 255 257 253 256 253 254 252 254 249 262 276 274 283 302 310 314 291 277 258 281 295 281 271 248 229 216 204 199 216 216 216 213 212 217 214 223 228 225 230 234 237 231 221 212 218 226 213 197 171 166 187 215 217 170 193 236 214 104 37 308 291 313 340 342 1 3 8 4 52 357 3 9 21 7 11 14 27 58
258 268 277 278 277 284 291 277 254 254 258 259 250 245 250 254 262 270 270 285 299 311 326 318 294 275 280 283 254 272 268 240 244 212 199 208 222 217 214 216 221 217 209 221 225 232 241 233 230 216 204 205 214 208 189 182 185 189 214 205 181 203 188 142 185 127 35 301 317 326 345 359 9 30 39 47 36 56 8 5 355 352 354 6 25
277 264 270 268 272 276 275 266 257 256 256 257 248 242 258 258 257 260 261 272 287 311 322 331 313 278 269 269 262 238 232 228 241 231 210 216 209 215 202 198 216 214 212 208 229 221 233 225 222 208 197 195 204 193 185 181 185 183 188 211 209 184 145 159 242 103 75 314 308 313 352 358 3 15 31 25 34 39 11 356 270 328 1 340 332
291 284 270 255 253 263 268 268 267 261 260 253 254 256 256 261 263 264 267 267 286 319 326 334 333 274 254 258 310 266 248 234 220 238 238 225 211 219 219 208 194 214 220 215 211 219 215 218 206 179 174 177 189 181 182 186 185 183 175 168 174 163 172 143 15 343 20 242 317 317 332 349 355 356 8 26 16 13 20 14 336 287 267 312 354
289 282 278 270 254 258 269 271 270 267 260 260 267 268 257 258 261 269 268 261 277 295 304 322 320 283 230 242 283 85 272 262 248 233 230 226 205 217 233 224 204 190 198 226 224 211 205 197 166 160 165 182 196 180 178 175 178 191 192 187 181 155 142 121 109 80 323 279 26 318 329 333 324 330 323 351 6 1 358 324 334 290 320 312 339
331 292 278 275 278 276 268 269 270 266 265 265 265 266 261 257 256 261 265 266 264 274 286 290 287 284 231 218 199 175 235 253 276 236 226 201 201 222 220 222 217 211 200 191 202 204 209 207 194 165 178 179 185 186 172 175 177 186 195 195 197 192 132 135 134 118 57 333 350 335 313 306 307 307 308 316 326 324 327 310 294 287 315 295 277
357 333 289 272 272 274 274 273 269 265 265 269 266 262 262 264 272 270 270 273 271 272 274 277 274 277 261 241 234 223 238 277 249 258 242 220 202 218 241 235 234 213 206 198 204 198 210 227 208 196 190 188 179 184 185 185 183 179 185 188 179 169 168 134 121 85 55 29 312 314 302 299 294 289 294 308 318 316 314 325 275 273 289 291 286
358 353 337 302 275 275 277 277 274 269 268 267 264 257 257 262 276 280 277 281 281 280 278 274 277 280 282 275 252 232 227 276 255 230 261 243 259 210 185 264 261 245 229 218 201 203 212 239 247 219 199 194 200 193 185 182 188 185 178 177 170 176 170 150 136 122 109 51 329 296 292 287 289 291 293 301 306 312 320 308 292 281 244 285 290
358 354 352 340 319 300 290 287 283 279 276 266 251 249 251 254 266 277 276 282 291 298 284 272 259 264 263 268 250 243 203 286 277 274 265 249 217 213 232 179 231 253 250 233 228 207 190 193 215 212 223 220 209 202 192 191 192 194 183 173 173 182 177 162 146 121 114 50 344 298 282 285 287 287 287 294 300 306 303 304 291 276 272 295 309
357 353 347 343 333 321 308 300 291 286 285 265 248 243 244 245 258 268 276 285 296 301 289 272 258 243 243 258 259 238 189 255 258 260 266 263 264 243 229 223 209 216 237 241 244 234 215 195 210 218 207 221 222 201 184 181 198 199 195 185 170 183 182 157 147 143 131 122 187 272 274 285 286 288 287 291 303 305 303 304 311 317 286 269 269
353 352 344 341 336 332 325 315 300 294 291 267 240 241 243 238 247 260 266 277 290 294 289 274 264 251 245 252 256 252 216 266 278 291 287 277 266 250 237 212 220 219 220 246 249 252 229 213 182 178 223 220 195 190 183 190 204 202 196 192 172 168 179 178 175 190 181 168 271 315 291 282 291 292 292 294 298 291 302 312 315 284 277 274 264
352 350 343 339 337 337 333 325 313 301 304 278 233 232 238 232 240 258 268 283 288 289 285 275 271 256 237 242 252 238 224 265 296 298 291 281 267 258 251 244 240 228 225 214 217 227 245 243 195 182 183 190 196 185 187 187 198 199 190 188 178 178 185 204 235 228 256 265 247 258 281 296 305 305 306 308 304 308 313 314 308 310 296 283 255
345 344 341 338 336 337 335 334 327 311 302 271 220 218 224 223 229 245 259 279 287 273 274 266 265 259 256 250 246 243 208 295 292 294 293 288 277 265 258 245 231 238 238 238 241 235 223 198 233 192 194 188 193 176 180 181 186 194 193 192 189 216 219 230 261 272 273 280 283 289 283 284 291 301 304 312 313 311 313 311 302 293 297 282 276
343 342 341 339 337 340 337 335 334 330 327 273 201 198 196 207 219 236 246 256 268 270 273 269 265 266 262 258 255 253 43 335 296 299 300 294 279 254 244 239 240 236 238 249 249 258 249 210 179 260 189 180 192 204 206 250 257 197 169 180 209 267 279 282 289 296 291 295 298 298 298 295 296 299 306 306 306 307 306 305 304 302 299 298 284
344 342 340 338 337 339 336 336 337 335 339 336 248 175 164 184 222 247 258 267 271 274 274 264 265 269 272 274 296 353 359 309 302 301 296 288 273 259 243 231 228 233 238 240 245 250 268 254 153 183 186 196 213 186 200 220 248 261 245 188 184 203 251 276 287 306 300 297 296 295 298 303 300 301 297 301 305 310 313 309 305 303 304 302 301
347 344 341 336 335 335 332 333 345 350 355 357 345 160 155 172 225 254 262 268 268 269 267 260 261 274 292 298 331 335 324 299 293 290 292 286 278 272 253 235 224 228 230 240 255 305 304 304 220 193 183 181 198 241 200 200 195 279 268 264 289 286 271 252 262 284 293 282 290 297 300 305 306 305 299 300 300 301 304 306 308 308 301 299 300
350 346 340 333 329 330 329 331 353 359 2 9 12 281 185 180 204 238 255 268 264 256 259 277 330 308 299 305 320 326 310 303 293 285 291 286 272 271 251 223 216 225 234 226 250 354 288 262 216 194 203 209 205 272 335 296 230 218 248 263 264 277 286 290 295 294 291 289 292 295 301 301 297 304 304 301 298 296 291 292 295 296 298 300 298
345 340 338 326 317 315 294 294 315 340 358 15 9 220 174 181 213 231 247 260 263 265 266 303 332 302 303 319 339 329 313 301 307 292 289 292 284 284 250 214 212 225 223 200 105 248 272 269 228 179 193 217 215 222 228 260 256 256 221 219 269 280 276 285 295 293 292 291 291 289 292 295 296 296 291 287 288 291 291 292 295 294 294 293 291
338 335 332 327 320 318 289 271 264 272 360 53 72 171 188 195 219 230 238 255 253 268 298 359 336 306 308 327 341 321 300 311 320 292 308 317 325 301 249 211 209 215 202 166 122 224 254 278 323 37 60 23 29 293 313 305 298 257 261 256 227 267 284 287 287 283 275 276 281 283 284 281 282 281 286 290 291 294 290 289 291 293 294 293 294
332 329 330 332 324 302 275 262 228 202 167 139 151 174 201 217 227 230 246 257 260 265 309 27 329 299 308 321 299 196 152 62 42 20 356 360 360 349 247 215 213 207 174 138 118 232 254 289 15 70 80 68 50 79 261 282 292 327 332 285 310 294 294 289 286 284 290 292 288 290 290 278 282 284 285 285 286 293 292 294 297 296 294 296 298
327 326 327 325 325 320 301 282 244 224 195 179 177 184 200 218 242 249 252 262 267 274 333 48 44 298 293 293 182 154 155 123 89 75 85 55 50 83 164 174 199 191 146 124 131 185 223 290 40 56 62 64 57 56 347 347 54 72 23 329 323 309 298 291 292 296 294 288 285 285 283 287 285 283 283 288 291 293 293 297 298 296 298 299 299
324 324 326 330 330 323 314 308 290 254 232 213 197 196 200 208 239 248 255 265 268 288 334 55 82 103 277 235 159 161 156 152 143 132 125 104 85 94 150 174 184 183 150 139 158 168 188 120 94 87 148 251 298 19 35 333 62 230 210 314 309 301 298 296 297 295 296 296 294 290 286 281 277 272 268 269 289 293 294 297 295 293 295 298 296
332 329 328 331 333 325 318 311 302 289 265 243 218 206 190 177 193 233 244 254 261 282 339 68 91 107 130 154 165 168 165 191 180 153 121 109 86 72 97 162 180 176 183 169 167 169 143 131 116 122 116 126 69 354 24 294 307 290 232 229 253 292 301 293 290 290 291 289 293 293 287 282 277 275 285 281 279 283 290 290 284 286 283 284 289
340 339 336 332 328 323 317 310 305 306 294 268 232 219 203 190 191 191 206 224 230 253 82 83 95 107 122 143 154 164 168 165 182 150 150 149 120 87 92 113 144 158 184 187 147 89 88 68 60 29 11 325 251 230 245 237 236 248 256 253 234 227 239 249 243 255 275 273 280 286 289 294 280 299 308 313 322 312 294 278 276 277 279 279 283
344 344 347 338 332 325 319 314 304 302 300 279 256 212 203 204 206 207 213 212 188 246 87 85 94 111 121 122 123 124 123 113 108 103 94 93 91 101 88 81 88 78 58 33 68 78 73 78 81 83 72 45 291 237 238 235 229 219 227 286 282 275 251 258 287 282 270 267 261 270 270 277 287 302 317 339 305 281 277 281 277 281 285 284 285
346 343 345 343 342 335 328 319 297 284 280 266 251 232 219 217 217 217 229 228 197 208 73 73 82 96 93 91 99 99 96 94 90 89 100 95 103 95 86 89 68 52 80 78 81 92 101 104 91 82 66 49 268 241 238 244 241 235 222 254 354 299 295 295 280 269 266 263 274 282 282 286 291 299 291 275 273 280 290 296 295 293 288 283 281
350 343 342 344 344 339 328 308 288 276 272 269 266 254 245 245 245 244 239 245 244 251 264 298 10 36 55 64 68 76 81 85 83 69 73 64 56 64 74 122 151 160 152 138 129 120 111 99 84 96 110 162 263 244 247 244 242 238 236 205 336 335 320 316 305 285 283 292 289 284 297 301 306 319 312 298 292 292 296 297 296 290 287 291 291
351 349 347 343 338 335 325 299 278 274 272 273 269 270 264 263 263 264 271 269 269 273 280 298 321 352 11 26 22 25 48 68 59 350 301 304 195 196 200 194 167 176 151 147 128 115 108 123 125 131 193 278 272 258 252 259 262 256 255 244 292 302 305 306 306 308 308 304 292 299 299 294 301 308 308 301 299 302 298 296 294 292 292 299 306
342 351 351 345 343 341 334 308 278 275 275 276 275 279 279 280 275 272 271 277 280 282 294 303 319 326 335 336 339 352 352 340 343 300 268 250 234 230 215 206 205 188 190 157 153 123 92 45 75 53 342 289 279 271 261 256 253 252 250 269 304 298 303 308 310 308 308 308 313 314 305 304 307 297 285 287 298 299 297 293 292 295 298 300 301
332 343 349 349 350 350 347 328 292 284 283 283 287 287 289 289 284 287 285 292 294 299 304 302 309 306 313 309 306 305 303 294 290 272 250 241 234 231 217 226 200 211 205 201 256 278 309 326 326 346 344 330 282 276 268 260 nan nan nan 292 305 308 304 308 308 309 309 305 302 300 299 301 301 299 301 298 297 285 284 287 289 291 293 298 300
318 329 336 346 348 346 338 325 314 303 296 296 291 296 294 292 299 300 301 307 314 317 316 315 312 307 310 306 306 308 308 300 294 279 259 248 240 226 220 214 219 235 253 265 260 280 278 290 294 300 299 299 286 nan nan nan nan nan nan 290 298 296 297 298 299 295 292 293 298 303 305 304 304 306 295 290 288 290 292 291 292 291 290 292 294
293 305 307 323 336 336 328 326 314 309 305 301 302 301 305 306 305 304 312 316 326 332 325 323 324 318 319 320 320 320 313 312 302 294 276 260 247 239 232 244 239 259 275 278 273 273 282 296 302 286 279 275 nan nan nan nan nan nan nan nan 288 292 295 299 299 296 295 297 298 293 290 295 296 294 282 284 286 291 293 297 295 295 294 292 291
273 290 301 311 319 328 324 317 309 305 305 310 314 316 308 311 312 319 332 346 355 344 336 329 326 324 328 328 325 317 309 306 305 297 289 283 273 266 265 263 261 262 266 272 282 284 292 299 299 293 nan 282 nan nan nan nan nan nan nan nan nan 292 295 297 295 296 296 296 296 295 299 293 291 284 289 295 294 293 292 289 289 292 292 295 290
266 282 295 299 303 312 322 317 310 306 306 309 308 308 306 300 306 307 325 337 332 314 300 309 308 314 313 315 309 309 302 296 293 290 284 280 278 278 283 285 289 294 299 295 291 285 290 287 286 297 300 nan nan nan nan nan nan nan nan nan nan nan nan nan 295 295 292 293 293 292 296 292 285 287 292 283 284 285 290 289 286 288 291 287 281
245 268 277 287 296 307 315 317 301 303 305 303 298 297 291 286 289 295 306 288 280 280 289 297 302 307 308 308 302 302 300 295 291 288 283 277 276 282 283 287 290 288 286 291 299 nan nan nan nan nan nan nan nan nan nan nan nan nan nan nan nan nan nan nan nan 301 303 nan 297 295 286 278 275 272 271 277 288 294 295 291 288 285 282 284 285
240 246 260 272 286 297 307 311 292 294 295 291 288 279 274 276 283 295 293 280 280 285 283 281 284 290 293 299 302 298 298 295 290 283 286 287 283 277 281 288 291 293 298 nan 302 nan nan nan nan nan nan nan nan nan nan nan nan nan nan nan nan nan nan nan nan nan nan 303 300 296 290 286 281 279 279 279 280 284 297 290 283 284 284 286 287
237 241 246 249 268 286 297 303 296 296 281 275 283 278 274 277 283 288 283 282 283 282 279 276 274 277 281 287 294 298 294 287 288 284 285 293 289 291 nan nan 292 292 nan nan nan nan nan nan nan nan nan nan nan nan nan nan nan nan nan nan nan nan nan nan nan nan nan nan 303 301 nan nan nan nan 289 287 283 280 287 283 286 284 285 283 284
232 233 236 239 249 265 273 282 288 294 285 273 271 270 271 277 282 277 278 280 281 279 278 275 273 275 277 281 283 287 283 277 275 275 280 284 287 nan nan nan nan nan nan nan nan nan nan nan nan nan nan nan nan nan nan nan nan nan nan nan nan nan nan nan nan nan nan nan nan nan nan nan nan nan nan nan 283 281 284 285 284 281 284 286 286
227 227 224 227 240 254 260 269 276 287 287 280 272 269 270 273 271 273 273 275 277 278 277 276 274 273 272 272 273 274 275 272 268 266 267 272 nan nan nan 282 287 nan nan nan nan nan nan nan nan nan nan nan nan nan nan nan nan nan nan nan nan nan nan nan nan nan nan nan nan nan nan nan nan nan nan 291 292 287 283 288 290 289 nan 290 289
225 227 224 223 233 239 247 260 269 276 279 278 275 271 271 265 263 265 267 267 270 274 274 274 269 268 267 268 270 273 273 271 266 261 nan nan nan nan nan nan nan nan nan nan nan nan nan nan nan nan nan nan nan nan nan nan nan nan nan nan nan nan nan nan nan nan nan nan nan nan nan 307 307 302 nan 295 293 292 296 298 297 nan 294 285 282
216 223 223 223 225 233 237 242 253 261 266 270 274 270 265 262 262 263 263 264 267 270 272 274 272 270 267 264 266 268 274 277 272 nan nan nan nan nan nan nan nan nan nan nan nan nan nan nan nan nan nan nan nan nan nan nan nan nan nan nan nan nan nan nan nan nan nan nan nan nan nan nan nan 298 297 298 297 298 297 296 291 286 279 279 277
216 216 222 227 227 226 223 227 237 248 252 257 266 266 263 261 260 262 264 267 269 272 275 277 280 278 273 273 271 272 273 275 273 nan nan nan nan nan nan nan nan nan nan nan nan nan nan nan nan nan nan nan nan nan nan nan nan nan nan nan nan nan nan nan nan nan nan nan nan nan nan nan nan nan nan nan 289 287 285 284 nan nan nan nan nan
217 217 219 227 229 227 223 217 220 231 241 250 253 260 264 260 257 262 269 273 278 286 288 291 293 294 292 288 287 289 292 284 277 271 nan nan nan nan nan nan nan nan nan nan nan nan nan nan nan nan nan nan nan nan nan nan nan nan nan nan nan nan nan nan nan nan nan nan nan nan nan nan nan nan nan nan nan nan nan nan nan nan nan nan nan
219 216 218 225 228 226 225 224 222 221 232 241 252 257 261 260 259 265 273 281 290 297 301 301 302 306 305 303 302 302 304 301 nan nan nan nan nan nan nan nan nan nan nan nan nan nan nan nan nan nan nan nan nan nan nan nan nan nan nan nan nan nan nan nan nan nan nan nan nan nan nan nan nan nan nan nan nan nan nan nan nan nan nan nan 288
218 215 215 224 229 228 224 220 222 226 227 237 247 254 253 261 268 268 274 282 292 296 300 302 307 310 307 300 298 302 304 304 303 nan nan nan nan nan nan nan nan nan nan nan nan nan nan nan nan nan nan nan nan nan nan nan nan nan nan nan nan nan nan nan nan nan nan nan nan nan nan nan nan nan nan nan nan nan nan nan nan 299 298 298 297